Location: Unspecified
(49.2170°N, 0.0000°E)
Time: 14:56:22
(UTC+00:00)

SR - Pass Details

Date: 27 January 2021
Orbit: 573 x 882 km, 66.7° (Epoch: 05 March)

Event Time Altitude Azimuth Distance (km) Brightness Sun altitude
Exits shadow 06:24:49 15° 302° (WNW) 1,951 ? -11.9°
Maximum altitude 06:27:08 20° 334° (NNW) 1,756 ? -11.5°
Drops below altitude 10° 06:31:05 10° 20° (NNE) 2,400 ? -10.9°
Sets 06:34:19 0° 37° (NE) 3,387 ? -10.4°
